[[{"header":{"parameterUnit":"m.s-1","parameterCategory":1,"la1":30.2991,"la2":30.254,"lo1":-89.0895,"lo2":-89.0444,"dy":0.0017,"dx":0.0017,"nx":28,"ny":28,"refTime":"2025-01-04T03:00:00:Z","depth":0,"parameterNumber":2,"parameterNumberName":"U-component_of_WINDS"},"data":[0,0,0,0,0,0,0,0,0,0,0,0,0,0,0,0,0,0,0,0,0,0,0,0,0,0,0,0,0,0,0,0,0,0,0,0,0,0,0,0,0,0,0,0,0,0,0,0,0,0,0,0,0,0,0,0,0,0,-3.9388,-3.9389,0,-3.9525,-3.9526,-3.9528,-3.958,-3.9579,-3.9579,-3.9578,-3.972,-3.9724,-3.9728,0,0,0,0,0,0,0,0,0,0,0,0,0,-3.9172,-3.9176,-3.9387,-3.9389,-3.9391,-3.9524,-3.9526,-3.9528,-3.958,-3.9579,-3.9579,-3.9578,-3.9719,-3.9724,-3.9729,0,0,0,0,0,0,0,0,0,0,0,0,0,-3.9283,-3.9177,-3.9387,-3.9433,-3.9438,-3.9524,-3.9526,-3.9529,-3.958,-3.9579,-3.9579,-3.9578,-3.9717,-3.9723,-3.9729,-3.978,0,0,-3.9748,-3.9751,0,0,0,0,0,0,0,0,-3.9277,-3.9291,-3.9424,-3.943,-3.9436,-3.9534,-3.9502,-3.9613,-3.958,-3.9526,-3.9578,-3.9578,-3.9659,-3.967,-3.9697,-3.9787,-3.9793,-3.9749,-3.9753,-3.9755,-3.9757,0,0,0,0,0,0,0,-3.9269,-3.9285,-3.9442,-3.9426,-3.9433,-3.9447,-3.9462,-3.9523,-3.9594,-3.9531,-3.9535,-3.955,-3.9662,-3.9691,-3.9701,-3.9795,-3.9749,-3.9754,-3.9758,-3.976,-3.9934,-3.9935,0,0,0,0,0,0,-3.9253,-3.9278,-3.9437,-3.9446,-3.9353,-3.9451,-3.9468,-3.9503,-3.9594,-3.9607,-3.9551,-3.9552,-3.968,-3.9693,-3.9706,-3.9771,-3.9755,-3.9761,-3.9765,-3.9933,-3.9934,-3.9935,0,0,0,0,0,0,-3.9249,-3.9267,-3.9432,-3.9363,-3.9385,-3.9456,-3.9495,-3.9506,-3.9535,-3.9609,-3.9622,-3.9567,-3.968,-3.9697,-3.9761,-3.9777,-3.9764,-3.977,-3.9932,-3.9933,-3.9934,-3.9902,0,0,0,0,0,0,-3.9242,-3.9265,-3.9285,-3.9363,-3.9389,-3.9484,-3.9496,-3.951,-3.9546,-3.9549,-3.9628,-3.964,-3.9681,-3.9752,-3.9767,-3.9785,-3.9774,-3.9931,-3.9932,-3.9934,-3.9902,-3.9902,-3.9902,0,0,0,0,0,-3.9234,-3.9271,-3.9285,-3.9304,-3.9415,-3.9485,-3.95,-3.9546,-3.9547,-3.9567,-3.9615,-3.9638,-3.9773,-3.9758,-3.9776,-3.9796,-3.993,-3.9932,-3.9934,-3.9902,-3.9902,-3.9902,0,0,0,0,0,0,-3.9192,-3.9282,-3.9299,-3.9362,-3.9415,-3.9494,-3.9521,-3.9545,-3.96,-3.96,-3.9656,-3.9673,-3.9733,-3.9771,-3.9753,-3.985,-3.9853,-3.9859,-3.9823,-3.9823,-3.9823,-3.9812,-3.978,0,0,0,0,0,-3.919,-3.9239,-3.9315,-3.9363,-3.9389,-3.945,-3.9483,-3.9514,-3.9572,-3.9595,-3.9647,-3.9703,-3.9758,-3.9793,-3.9848,-3.9908,-3.9926,-3.9931,-3.9931,-3.9931,-3.9935,-3.9969,-3.9972,-3.9941,-3.9941,-3.9941,0,0,-3.9187,-3.9242,-3.9269,-3.9356,-3.9401,-3.9451,-3.9469,-3.9521,-3.9559,-3.9603,-3.9666,-3.9707,-3.9773,-3.9835,-3.9865,-3.9869,-3.9947,-3.9933,-3.9932,-3.9937,-3.9972,-3.9975,-3.9977,-3.9943,-3.9942,-3.9942,0,0,-3.9206,-3.9252,-3.9297,-3.9342,-3.941,-3.945,-3.9461,-3.9536,-3.9564,-3.9629,-3.9663,-3.9709,-3.9803,-3.9848,-3.9883,-3.992,-3.9943,-3.9936,-3.9936,-3.9969,-3.9972,-3.9974,-3.9987,-3.9991,-3.994,-3.994,-3.994,0,-3.9193,-3.9269,-3.9317,-3.9368,-3.9405,-3.9446,-3.9492,-3.9534,-3.9616,-3.9641,-3.9644,-3.9762,-3.981,-3.9883,-3.9892,-3.992,-3.9934,-3.9927,-3.9967,-3.997,-3.9973,-3.9986,-3.999,-3.9939,-3.9939,-3.9939,-3.9939,0,-3.9249,-3.9302,-3.933,-3.9408,-3.9448,-3.9496,-3.9552,-3.9588,-3.9615,-3.9655,-3.9721,-3.9779,-3.9846,-3.9866,-3.9894,-3.9944,-3.9944,-3.9956,-3.996,-3.9974,-3.9987,-3.9992,-3.9937,-3.9937,-3.9938,-3.9938,0,0,-3.9245,-3.9349,-3.9358,-3.9394,-3.9472,-3.9514,-3.9564,-3.9629,-3.9658,-3.9714,-3.9757,-3.9836,-3.9848,-3.9888,-3.9921,-3.9951,-3.9975,-3.996,-3.9962,-3.996,-4.0033,-4.0023,-4.0028,-3.9991,-3.9992,-3.9993,-4.0028,0,-3.9274,-3.9364,-3.9409,-3.948,-3.9529,-3.9569,-3.9613,-3.9666,-3.9705,-3.9753,-3.9797,-3.9851,-3.9863,-3.9887,-3.9918,-3.9965,-3.999,-3.9964,-4.0032,-4.0034,-4.0013,-4.0035,-4.0024,-4.0053,-4.0033,-4.0034,-4.0035,0,-3.9319,-3.9373,-3.9449,-3.9521,-3.9543,-3.9581,-3.9645,-3.969,-3.9751,-3.9777,-3.9822,-3.9855,-3.991,-3.991,-3.9986,-3.9967,-3.9998,-4.0026,-4.0028,-4.0036,-4.0034,-4.0042,-4.0064,-4.0068,-4.0043,-4.0042,-4.0042,0,-3.9307,-3.94,-3.9457,-3.9486,-3.9572,-3.9598,-3.9635,-3.9695,-3.9732,-3.9788,-3.9812,-3.9873,-3.9907,-3.9954,-4.0003,-3.9999,-4.0074,-4.0079,-4.0098,-4.0097,-4.0111,-4.0109,-4.0138,-4.0132,-4.0132,-4.0132,-4.0132,0,-3.9334,-3.9378,-3.9452,-3.9487,-3.9538,-3.959,-3.964,-3.968,-3.9734,-3.9778,-3.9817,-3.9858,-3.992,-3.9968,-4.0007,-4.0064,-4.0079,-4.0102,-4.0112,-4.0098,-4.0095,-4.0119,-4.0118,-4.0133,-4.0133,-4.0133,-4.0133,0,-3.9329,-3.9381,-3.9445,-3.9521,-3.9541,-3.9575,-3.9641,-3.9677,-3.9718,-3.9773,-3.9789,-3.9854,-3.9913,-3.9967,-4.0045,-4.0071,-4.0129,-4.0142,-4.0108,-4.0113,-4.0129,-4.0127,-4.0173,-4.0182,-4.017,-4.017,-4.017,0,-3.9342,-3.9377,-3.9457,-3.9488,-3.9524,-3.9576,-3.9613,-3.9665,-3.9703,-3.9775,-3.9802,-3.9864,-3.9916,-4.0009,-4.0064,-4.0124,-4.0138,-4.015,-4.0147,-4.0133,-4.0138,-4.0135,-4.0138,-4.0149,-4.0149,-4.0149,-4.0149,0,-3.936,-3.9384,-3.9435,-3.9495,-3.9538,-3.9589,-3.964,-3.9665,-3.9727,-3.9767,-3.9828,-3.9868,-3.9948,-4.0009,-4.0076,-4.0115,-4.0143,-4.015,-4.0157,-4.0143,-4.0122,-4.0133,-4.0106,-4.0148,-4.0148,-4.0148,-4.0148,-4.0148,-3.9365,-3.9397,-3.9458,-3.9514,-3.9558,-3.9606,-3.9643,-3.9688,-3.974,-3.9808,-3.9837,-3.9898,-3.9959,-4.0052,-4.0091,-4.014,-4.0145,-4.0156,-4.0159,-4.0161,-4.0158,-4.0115,-4.0153,-4.0153,-4.0153,-4.0153,-4.0153,0,-3.9384,-3.9425,-3.9476,-3.9546,-3.959,-3.9612,-3.967,-3.9706,-3.9759,-3.9813,-3.9864,-3.9934,-3.9993,-4.0052,-4.0115,-4.0143,-4.0158,-4.0158,-4.0156,-4.0165,-4.015,-4.0137,-4.0146,-4.0146,-4.0146,-4.0146,-4.0146,-4.0146,-3.9399,-3.9455,-3.9486,-3.9565,-3.9606,-3.9666,-3.9698,-3.9742,-3.9785,-3.9861,-3.991,-3.9948,-4.0005,-4.0072,-4.0128,-4.0144,-4.0165,-4.0162,-4.0181,-4.0166,-4.0166,-4.0166,-4.0154,-4.0166,-4.0166,-4.0192,-4.0193,-4.0193]},{"header":{"parameterUnit":"m.s-1","parameterCategory":1,"la1":30.2991,"la2":30.254,"lo1":-89.0895,"lo2":-89.0444,"dy":0.0017,"dx":0.0017,"nx":28,"ny":28,"refTime":"2025-01-04T03:00:00:Z","depth":0,"parameterNumber":3,"parameterNumberName":"V-component_of_WINDS"},"data":[0,0,0,0,0,0,0,0,0,0,0,0,0,0,0,0,0,0,0,0,0,0,0,0,0,0,0,0,0,0,0,0,0,0,0,0,0,0,0,0,0,0,0,0,0,0,0,0,0,0,0,0,0,0,0,0,0,0,4.4041,4.4043,0,4.4219,4.4221,4.4223,4.4238,4.4236,4.4234,4.4232,4.4419,4.4425,4.4432,0,0,0,0,0,0,0,0,0,0,0,0,0,4.3722,4.3728,4.4041,4.4043,4.4046,4.4219,4.4221,4.4224,4.4238,4.4236,4.4234,4.4231,4.4417,4.4425,4.4433,0,0,0,0,0,0,0,0,0,0,0,0,0,4.3876,4.3729,4.4041,4.4074,4.4078,4.4218,4.4221,4.4224,4.4239,4.4236,4.4233,4.423,4.4414,4.4424,4.4434,4.4554,0,0,4.4465,4.4469,0,0,0,0,0,0,0,0,4.3867,4.3888,4.4067,4.4072,4.4077,4.4203,4.4177,4.4335,4.424,4.4178,4.4232,4.4229,4.435,4.4365,4.4405,4.4563,4.4571,4.4466,4.4472,4.4476,4.4479,0,0,0,0,0,0,0,4.3857,4.388,4.4112,4.4069,4.4076,4.4082,4.4101,4.4207,4.4278,4.4183,4.4185,4.4205,4.4352,4.4395,4.4409,4.4574,4.4465,4.4474,4.4481,4.4485,4.4845,4.4848,0,0,0,0,0,0,4.3839,4.3871,4.4106,4.4117,4.3963,4.409,4.4111,4.4166,4.4277,4.4291,4.4208,4.4205,4.4379,4.4397,4.4416,4.4568,4.4476,4.4486,4.4491,4.4842,4.4846,4.485,0,0,0,0,0,0,4.3832,4.386,4.4099,4.3995,4.4026,4.4099,4.416,4.4171,4.4214,4.4295,4.4309,4.4238,4.4378,4.4402,4.4521,4.4574,4.449,4.4499,4.4837,4.4843,4.4848,4.487,0,0,0,0,0,0,4.3823,4.3857,4.3902,4.3996,4.4031,4.4198,4.4163,4.4176,4.4231,4.4229,4.4327,4.4341,4.4377,4.4505,4.4531,4.4587,4.4507,4.4833,4.484,4.4846,4.4865,4.4875,4.4884,0,0,0,0,0,4.3811,4.3901,4.3904,4.3932,4.4088,4.4201,4.4222,4.4261,4.4235,4.4282,4.4335,4.4338,4.4564,4.4517,4.4546,4.4606,4.483,4.4838,4.4845,4.486,4.4873,4.4884,0,0,0,0,0,0,4.3812,4.3913,4.3918,4.404,4.4112,4.4203,4.4264,4.4272,4.4354,4.435,4.4396,4.4418,4.4536,4.4583,4.4529,4.4731,4.4695,4.4708,4.4696,4.4709,4.4718,4.4706,4.4516,0,0,0,0,0,4.3826,4.3907,4.3993,4.4092,4.4128,4.419,4.424,4.4264,4.4341,4.4372,4.4434,4.451,4.4599,4.4656,4.4742,4.4871,4.4895,4.4927,4.4937,4.4944,4.4956,4.5033,4.5049,4.4875,4.4875,4.4875,0,0,4.3856,4.3922,4.3971,4.4094,4.4153,4.4239,4.4215,4.4306,4.4372,4.4386,4.4503,4.4551,4.464,4.4765,4.4824,4.4808,4.501,4.4954,4.496,4.4968,4.5043,4.5059,4.5074,4.4881,4.488,4.4879,0,0,4.3956,4.4013,4.4104,4.4163,4.4252,4.4293,4.4315,4.4407,4.4439,4.4556,4.4571,4.465,4.4801,4.4864,4.4916,4.5045,4.5052,4.5071,4.5123,4.5197,4.5211,4.5223,4.5273,4.5289,4.5083,4.5083,4.5083,0,4.3984,4.4112,4.415,4.4242,4.4298,4.4314,4.4409,4.4466,4.4578,4.4618,4.4598,4.479,4.4851,4.4994,4.5025,4.5066,4.5095,4.5061,4.5205,4.5218,4.5231,4.5278,4.5296,4.5085,4.5085,4.5085,4.5084,0,4.4143,4.4232,4.4295,4.4404,4.4467,4.4559,4.4614,4.4674,4.4693,4.4737,4.4859,4.4933,4.5036,4.5071,4.509,4.5219,4.5206,4.5195,4.516,4.5249,4.5294,4.5313,4.5088,4.5087,4.5087,4.5086,0,0,4.4247,4.4377,4.44,4.4452,4.4552,4.4624,4.4719,4.4819,4.4871,4.4949,4.5033,4.5161,4.5153,4.5212,4.524,4.5304,4.5406,4.5286,4.5289,4.5309,4.5557,4.5566,4.5586,4.5411,4.5414,4.5417,4.555,0,4.4361,4.453,4.4568,4.4714,4.48,4.4818,4.4902,4.4975,4.5019,4.5101,4.515,4.5242,4.5222,4.5259,4.5324,4.538,4.5457,4.537,4.5493,4.5496,4.5472,4.561,4.5619,4.5741,4.5568,4.5571,4.5573,0,4.4516,4.4598,4.4752,4.4845,4.4883,4.4957,4.5054,4.513,4.5215,4.5243,4.531,4.5332,4.5436,4.5394,4.554,4.5481,4.5533,4.5569,4.5575,4.5589,4.5542,4.5631,4.578,4.58,4.5601,4.5599,4.5597,0,4.4581,4.473,4.4843,4.4885,4.4996,4.5049,4.5097,4.5179,4.5238,4.5323,4.5363,4.5459,4.5513,4.5588,4.5637,4.5601,4.5781,4.5742,4.581,4.5809,4.5848,4.5845,4.6011,4.5877,4.5877,4.5877,4.5876,0,4.4706,4.48,4.4874,4.4943,4.5052,4.5096,4.5203,4.5252,4.5325,4.5407,4.5429,4.5506,4.5564,4.565,4.5689,4.5806,4.5829,4.5858,4.5867,4.5857,4.5854,4.5894,4.5888,4.5882,4.5881,4.588,4.5879,0,4.4797,4.4849,4.4974,4.5069,4.5095,4.5171,4.5254,4.5324,4.537,4.5474,4.5501,4.5573,4.5676,4.5731,4.586,4.5886,4.6019,4.6022,4.599,4.5995,4.6061,4.6056,4.626,4.6291,4.6134,4.6135,4.6136,0,4.4874,4.4948,4.5051,4.5107,4.5157,4.5246,4.5307,4.5355,4.5418,4.5521,4.558,4.5684,4.577,4.5934,4.6,4.6099,4.6108,4.6173,4.6123,4.6112,4.6113,4.6109,4.6119,4.6182,4.6183,4.6184,4.6185,0,4.5007,4.503,4.5115,4.5212,4.5283,4.5361,4.5439,4.5484,4.5545,4.5615,4.572,4.5787,4.5919,4.6024,4.6129,4.6183,4.6197,4.62,4.6222,4.6214,4.6194,4.6209,4.6017,4.6196,4.6195,4.6194,4.6194,4.6193,4.5096,4.5164,4.5248,4.5344,4.5407,4.548,4.5551,4.5607,4.5694,4.5805,4.5829,4.5941,4.6028,4.6171,4.6227,4.6318,4.6305,4.6336,4.6344,4.6352,4.6356,4.6177,4.6337,4.6337,4.6336,4.6336,4.6336,0,4.5233,4.5289,4.5376,4.5484,4.5561,4.5564,4.5652,4.5716,4.5814,4.5893,4.5977,4.6101,4.6203,4.6277,4.6382,4.6441,4.645,4.6467,4.6465,4.6478,4.6359,4.6332,4.6458,4.6458,4.6458,4.6458,4.6458,4.6458,4.5314,4.543,4.5463,4.5613,4.5668,4.5777,4.5827,4.5896,4.5959,4.6095,4.618,4.6227,4.6306,4.6418,4.6513,4.6533,4.6572,4.6589,4.661,4.6499,4.6486,4.6473,4.6448,4.6597,4.6597,4.6722,4.6723,4.6724]}]]